Showing default

BRO-1, 44495

Orbit data source: Space-Track

BRO-1, 44495 is a payload satellite owned by Unseen Labs (FR) in LEO that was launched on Mon, 19 Aug 2019 UTC via an ELECTRON launch vehicle from the Rocket Lab Launch Complex (RLLC). Payload-class satellites include a variety of spacecraft equipped with specific instruments for various scientific and technological missions. These include communications satellites like Starlink; space stations such as the ISS; scientific satellites like the Hubble; Earth observation satellites from companies like Planet Labs, Umbra, and HawkEye 360; GPS; miniature CubeSats for education and research; and military/defense satellites.

Loading next visibility...
Identifier
44495, 2019-054A
Orbit
LEO
Last TLE update
9 hours ago
Origin
Manufacturer
GOMSpace
Mission
Operational Commercial Sigint
Bus & Motor
CUBESAT 6U, Unknown motor
Mass
10 kg wet, ~10 kg dry
Launch date (UTC)
2019-08-19 (6 years ago)
Launch vehicle
ELECTRON
Launch site
Rocket Lab Launch Complex (RLLC)
Object type
Payload
Rocket body
Debris
Shape & HBR
Box, 0.3 m
Radar Cross Section
0.080 m², Small (<0.1 m²)

Expand to show TLE details & history

TLE from 9 hours ago
0 BRO-1
1 44495U 19054A   25129.29953120  .00026130  00000-0  61924-3 0  9992
2 44495  45.0080  74.0210 0003412 152.2682 207.8388 15.41339063316871
Epoch: 2025-05-09T07:11Z
Definitive object data (Epoch: 2025-05-09T07:11:19.495Z)
Latitude
-0.00009°
Longitude
98.83202°
Altitude
444.214 km
Speed
7.646 km/s
True Right ascension
04h 56m 05s
True Declination
0° 00' 00"
Sunlit
Object was in daylight at TLE epoch
Visualization TLE readout
Latitude
-12.43274°
Longitude
84.02056°
Altitude
446.834 km
Speed
7.644 km/s
Apparent Right ascension
07h 04m 18s
Apparent Declination
-47° 07' 23"
Sunlit
Object is in daylight
Visualization observer readout
Local Sidereal Time
00:37:11
Azimuth
127.074° SE
Elevation
-32.129°
Doppler factor
1
Orbital elements
Apogee altitude
446.101 km
Perigee altitude
441.446 km
Semi-major axis
6,821.911 km
Eccentricity
0.0003412
Inclination
45.008°
RAAN
74.021°
Arg. of periapsis
152.2682°
True anomaly
207.82055°
Mean anomaly
207.8388°
Eccentric anomaly
207.82967°
Mean motion
3.85198 °/min
BSTAR
0.00061924
Orbital period
93.46 mins
Loading maneuver chart data...
Loading SW <> Apogee altitude chart data...
Loading historical data...
Loading historical data...
Loading historical data...
Loading historical data...
Loading historical data...
Loading historical data...
Loading historical data...

BRO-1 Visibility forecast

Observer location: undefined°, undefined°

Span
Click to sort rows by Start time (UTC) header in descending order
Start Az.
Max El. time (UTC)
Max El. Az.
Max El.
End time (UTC)
End Az.
5 mins2025-05-09 22:55:42.296Z193.927° SSW2025-05-09 22:57:42.296Z154.006° SSE21.972°2025-05-09 23:00:42.296Z90.16° ESE
5 mins2025-05-10 00:33:42.296Z260.524° W2025-05-10 00:35:42.296Z338.281° N42.834°2025-05-10 00:38:42.296Z62.445° ENE
4 mins2025-05-10 02:12:42.296Z316.466° NNW2025-05-10 02:13:42.296Z349.142° N29.123°2025-05-10 02:16:42.296Z61.928° ENE
4 mins2025-05-10 03:50:42.296Z313.906° NW2025-05-10 03:51:42.296Z344.792° N36.002°2025-05-10 03:54:42.296Z89.298° E
4 mins2025-05-10 05:28:42.296Z258.16° W2025-05-10 05:29:42.296Z225.517° WSW30.484°2025-05-10 05:32:42.296Z147.844° SSE
|